Location: Foots Cray
(51.4000°N, 0.1167°E)
Time: 23:14:20
(UTC+00:00)

Cosmos 2142 Rocket - Pass Details

Date: 15 May 2026
Orbit: 951 x 1005 km, 83.0° (Epoch: 11 June)

Event Time Altitude Azimuth Distance (km) Brightness Sun altitude
Exits shadow 23:30:57 31° 193° (SSW) 1,648 5.2 -19.3°
Maximum altitude 23:34:11 84° 280° (W) 988 4.5 -19.4°
Drops below altitude 10° 23:40:26 10° 9° (N) 2,717 8.0 -19.5°
Sets 23:42:56 0° 10° (N) 3,661 9.0 -19.5°
